This is the latest recevied weather packets stored in our database for station/object N0KTA-2. If no packets are shown the sender has not sent any weather packets the latest 10 day(s).
| Time | Temp. | Humidity | Pressure | Rain* | Wind** | Luminosity | Snow |
|---|---|---|---|---|---|---|---|
| 1777836565 | 29.44° C | 23% | 1007.3 hPa | 0 mm | - | - | - |
| 1777835965 | 28.89° C | 25% | 1007.4 hPa | 0 mm | - | - | - |
| 1777835364 | 28.33° C | 21% | 1007.6 hPa | 0 mm | - | - | - |
| 1777834765 | 28.33° C | 24% | 1007.9 hPa | 0 mm | - | - | - |
| 1777834164 | 28.33° C | 26% | 1008 hPa | 0 mm | - | - | - |
| 1777833565 | 28.33° C | 24% | 1008 hPa | 0 mm | - | - | - |
| 1777832964 | 27.78° C | 26% | 1008.3 hPa | 0 mm | - | - | - |
| 1777832365 | 27.78° C | 31% | 1008.5 hPa | 0 mm | - | - | - |
| 1777831764 | 27.22° C | 31% | 1008.8 hPa | 0 mm | - | - | - |
| 1777831165 | 27.22° C | 31% | 1009.2 hPa | 0 mm | - | - | - |
| 1777830566 | 26.11° C | 34% | 1009.3 hPa | 0 mm | - | - | - |
| 1777829965 | 25.56° C | 38% | 1009.7 hPa | 0 mm | - | - | - |
| 1777829364 | 25.56° C | 36% | 1009.8 hPa | 0 mm | - | - | - |
| 1777828765 | 25° C | 38% | 1009.9 hPa | 0 mm | - | - | - |
| 1777828165 | 24.44° C | 40% | 1010.1 hPa | 0 mm | - | - | - |
| 1777827564 | 23.89° C | 40% | 1010.4 hPa | 0 mm | - | - | - |
| 1777826965 | 23.33° C | 41% | 1010.5 hPa | 0 mm | - | - | - |
| 1777826364 | 22.78° C | 42% | 1010.6 hPa | 0 mm | - | - | - |
| 1777825765 | 22.22° C | 44% | 1010.7 hPa | 0 mm | - | - | - |
| 1777825164 | 21.67° C | 44% | 1010.9 hPa | 0 mm | - | - | - |
| 1777824565 | 21.11° C | 48% | 1011.1 hPa | 0 mm | - | - | - |
| 1777823964 | 20.56° C | 50% | 1011.1 hPa | 0 mm | - | - | - |
| 1777823365 | 20° C | 48% | 1011.2 hPa | 0 mm | - | - | - |
| 1777822764 | 19.44° C | 51% | 1011.3 hPa | 0 mm | - | - | - |
| 1777822165 | 18.89° C | 53% | 1011.4 hPa | 0 mm | - | - | - |
* Rain latest hour (hover to see other rain measurements)
** Current wind speed in m/s (hover to see current wind gust speed)